User: anonymous   Login
Location: Chavannes
(47.1090°N, 0.2226°W)
Time: 16:52:28
(UTC+00:00)
Language:

UNISAT 6 - Orbit

View from above orbital plane
View from above orbital plane
View from above satellite
View from above satellite

Ground track
Ground track

The orbit data is extracted from the following two-line orbital elements,

1 40012U 14033C   22222.65572588  .00000821  00000-0  12624-3 0  9993
2 40012  97.6627  47.7268 0056980 345.0025  14.9493 14.75014777437970
Epoch (UTC): 10 August 2022 15:44:14
Eccentricity: 0.0056980
inclination: 97.6627°
perigee height: 605 km
apogee height: 685 km
right ascension of ascending node: 47.7268°
argument of perigee: 345.0025°
revolutions per day: 14.75014777
mean anomaly at epoch: 14.9493°
orbit number at epoch: 43797

The dashed part of the orbit path shows where the satellite is in the earth's shadow,  

DLR